Weather WX

World > North America > United States > North Carolina

Farmville, North Carolina Regional Weather

Lat: 35.59N, Lon: 77.59W
Wx Zone: NCZ044
Warning FLW WEATHER ALERT - (More Info. Click Here) Warning
Feedback

Farmville, NC Regional Weather

Expires:201907181900;;262678
ASUS42 KMHX 181814
RWRMHX
WEATHER ROUNDUP FOR EASTERN NORTH CAROLINA
NATIONAL WEATHER SERVICE NEWPORT/MOREHEAD CITY NC
200 PM EDT THU JUL 18 2019

NOTE: "FAIR" INDICATES FEW OR NO CLOUDS BELOW 12,000 FEET
WITH NO SIGNIFICANT WEATHER AND/OR OBSTRUCTIONS TO VISIBILITY


NCZ011>013-027>030-043-044-078>080-089-090>093-098-181900-
COASTAL PLAIN
  
CITY           SKY/WX    TMP DP  RH WIND       PRES   REMARKS
AHOSKIE        NOT AVBL                                               
CLINTON        FAIR      92  74  55 SW13G18   29.98S HX 102           
ELIZABETHTOWN  FAIR      93  74  54 SW14G20   29.99F HX 102           
GOLDSBORO      PTSUNNY   92  75  57 SW12      29.94F HX 102           
GREENVILLE     FAIR      91  73  55 SW12      29.97F HX 100           
HAVELOCK       NOT AVBL                                               
KENANSVILLE    FAIR      93  72  49 SW14G21   29.97S HX 100           
KINSTON        PTSUNNY   93  72  49 SW9       29.96F HX 100           
NEW BERN       FAIR      95  74  50 SW16G24   29.96F HX 105           
RICHLANDS      FAIR      95  76  53 SW12      29.98F HX 108           
ROCKY MOUNT    FAIR      95  73  48 SW14G22   29.94F HX 104           
WASHINGTON     FAIR      93  73  51 S12G18    29.95F HX 101           
WHITEVILLE     FAIR      92  73  53 SW9       29.99S HX 101           

$$


SKY/WX - Weather  TMP - Temperature  DP - Dew Point  RH - Relative Humidity
WIND - Wind Direction/Speed PRES - Barometric Pressure VSB - Visibility
WCI - Wind Chill Index E13G22 Wind - East Wind 13 mph/Gusts of 22 mph